Stations météo

Publicité
Lyon/Bron, France (7480): Température de l'air & dewpoint: 10.08.2017 17:00:00 - 16.08.2017 17:00:00 (CEST)Lyon/Bron, France (7480): Température de l'air 5cm: 10.08.2017 17:00:00 - 16.08.2017 17:00:00 (CEST)Lyon/Bron, France (7480): Température de l'air -20cm: 10.08.2017 17:00:00 - 16.08.2017 17:00:00 (CEST)Lyon/Bron, France (7480): Vitesse du vent & gusts: 10.08.2017 17:00:00 - 16.08.2017 17:00:00 (CEST)Lyon/Bron, France (7480): Direction du vent: 10.08.2017 17:00:00 - 16.08.2017 17:00:00 (CEST)Lyon/Bron, France (7480): reduced air pressure: 10.08.2017 17:00:00 - 16.08.2017 17:00:00 (CEST)Lyon/Bron, France (7480): visibility: 10.08.2017 17:00:00 - 16.08.2017 17:00:00 (CEST)Lyon/Bron, France (7480): Ensoleillement: 10.08.2017 17:00:00 - 16.08.2017 17:00:00 (CEST)Lyon/Bron, France (7480): Quantités de précipitations: 10.08.2017 17:00:00 - 16.08.2017 17:00:00 (CEST)
Date & Time tt [°C] td [°C] tt 5cm [°C] tt -20cm [°C] ff [km/h] ff [knt] fx [km/h] fx [knt] dd ppp [hPa] vv [km] sd [min] rr [mm]
16.08.2017 17:00:00 29,3 16,5 30,7 24,5 9 5 16 9 ENE 1018,1 43 28 0,0
16.08.2017 16:00:00 27,9 16,2 30,2 24,2 5 3 13 7 NNE 1018,3 50 37 0,0
16.08.2017 15:00:00 28,2 16,8 32,7 23,9 6 3 16 9 N 1018,7 52 53 0,0
16.08.2017 14:00:00 27,8 17,0 31,9 23,6 5 3 17 9 NNW 1018,9 55 44 0,0
16.08.2017 13:00:00 26,7 17,2 31,2 23,5 4 2 22 12 WNW 1019,2 49 60 0,0
16.08.2017 12:00:00 26,3 17,9 30,3 23,4 4 2 14 8 NE 1019,8 47 60 0,0
16.08.2017 11:00:00 24,5 17,2 29,0 23,4 7 4 14 8 NNE 1020,3 48 60 0,0
16.08.2017 10:00:00 23,0 17,5 24,8 23,4 2 1 9 5 NNW 1020,6 35 60 0,0
16.08.2017 09:00:00 21,0 17,4 19,6 23,6 0 0 4 2 N 1020,7 26 60 0,0
16.08.2017 08:00:00 19,0 17,5 16,5 23,8 0 0 0 0 N 1020,8 23 38 0,0
16.08.2017 07:00:00 18,1 17,1 16,0 23,9 0 0 0 0 N 1020,7 17 0 0,0
16.08.2017 06:00:00 18,1 16,9 16,3 24,1 0 0 6 4 N 1020,5 20 0 0,0
16.08.2017 05:00:00 18,2 17,0 15,8 24,2 5 3 6 3 E 1020,6 18 0 0,0
16.08.2017 04:00:00 18,4 17,1 15,9 24,4 0 0 5 3 N 1021,0 25 0 0,0
16.08.2017 03:00:00 19,1 17,2 16,7 24,6 3 1 12 6 W 1020,7 33 0 0,0
16.08.2017 02:00:00 20,4 17,6 18,1 24,7 0 0 9 5 N 1020,6 35 0 0,0
16.08.2017 01:00:00 21,4 17,2 20,0 24,8 5 3 34 18 NNW 1020,5 28 0 0,0
16.08.2017 00:00:00 21,5 17,3 20,2 24,9 17 9 39 21 N 1020,1 52 0 0,0
15.08.2017 23:00:00 21,3 18,3 19,9 25,0 7 4 11 6 S 1020,4 38 0 0,0
15.08.2017 22:00:00 21,3 17,9 19,8 25,1 5 3 9 5 WNW 1021,3 46 0 0,0
15.08.2017 21:00:00 21,7 17,7 20,3 25,1 2 1 10 5 NW 1020,2 47 0 0,0
15.08.2017 20:00:00 22,5 18,1 19,7 25,0 9 5 31 17 N 1019,4 38 0 1,0
15.08.2017 19:00:00 26,4 15,4 23,4 24,8 17 9 29 16 NNW 1018,8 42 0 0,0
15.08.2017 18:00:00 28,2 14,4 28,7 24,6 24 13 45 24 N 1017,5 56 17 0,0
15.08.2017 17:00:00 31,2 11,1 30,9 24,3 12 6 32 17 S 1016,7 56 24 0,0
15.08.2017 16:00:00 32,1 10,7 35,1 24,0 23 13 41 22 SSW 1016,5 54 60 0,0
15.08.2017 15:00:00 31,5 10,8 33,4 23,8 28 15 47 25 S 1016,9 60 60 0,0
15.08.2017 14:00:00 29,5 10,1 27,8 23,6 27 14 48 26 S 1017,2 60 22 0,0
15.08.2017 13:00:00 27,1 11,2 23,7 23,5 21 12 38 21 S 1017,4 60 1 0,0
15.08.2017 12:00:00 28,5 11,1 31,0 23,5 26 14 49 27 S 1017,8 48 53 0,0
15.08.2017 11:00:00 27,4 10,1 28,9 23,4 29 16 47 26 S 1017,8 59 60 0,0
15.08.2017 10:00:00 25,5 11,3 25,7 23,5 23 13 35 19 S 1018,2 60 60 0,0
15.08.2017 09:00:00 23,2 12,5 21,3 23,7 12 6 19 10 SSE 1018,4 60 60 0,0
15.08.2017 08:00:00 20,5 12,7 16,4 23,9 4 2 15 8 SSE 1018,4 49 46 0,0
15.08.2017 07:00:00 19,1 12,4 16,0 24,0 8 4 15 8 SSE 1018,4 60 0 0,0
15.08.2017 06:00:00 20,2 12,2 16,8 24,2 5 3 16 9 SSE 1018,1 60 0 0,0
15.08.2017 05:00:00 21,8 12,4 20,4 24,4 11 6 26 14 SSE 1017,5 60 0 0,0
15.08.2017 04:00:00 21,6 11,6 16,6 24,5 11 6 22 12 SSE 1017,6 60 0 0,0
15.08.2017 03:00:00 21,5 10,6 17,8 24,7 3 1 26 14 S 1017,7 60 0 0,0
15.08.2017 02:00:00 22,5 10,6 20,8 24,9 15 8 42 23 SSW 1017,1 60 0 0,0
15.08.2017 01:00:00 23,5 11,2 22,3 25,0 22 12 41 22 S 1016,9 60 0 0,0
15.08.2017 00:00:00 24,4 12,4 23,4 25,1 26 14 50 27 S 1016,7 60 0 0,0
14.08.2017 23:00:00 25,5 12,3 24,5 25,2 27 15 43 23 S 1016,2 60 0 0,0
14.08.2017 22:00:00 26,9 11,4 25,8 25,2 26 14 41 22 S 1015,7 60 0 0,0
14.08.2017 21:00:00 28,6 12,1 27,5 25,2 19 11 31 17 S 1015,1 60 2 0,0
14.08.2017 20:00:00 29,8 11,8 29,1 25,0 19 10 37 20 S 1014,5 60 0 0,0
14.08.2017 19:00:00 30,8 11,7 29,9 24,7 23 12 43 23 S 1013,9 45 54 0,0
14.08.2017 18:00:00 31,7 12,0 33,7 24,4 26 14 45 24 S 1014,3 43 60 0,0
14.08.2017 17:00:00 32,1 12,8 34,7 24,0 27 14 41 22 SSE 1014,6 43 60 0,0
14.08.2017 16:00:00 31,5 13,3 34,9 23,5 24 13 41 22 SSE 1015,1 45 60 0,0
14.08.2017 15:00:00 30,5 15,0 34,1 23,1 23 12 42 23 S 1015,8 55 60 0,0
14.08.2017 14:00:00 29,4 15,9 33,3 22,7 23 12 35 19 S 1016,5 56 60 0,0
14.08.2017 13:00:00 27,6 15,9 31,2 22,4 14 8 28 15 S 1017,3 43 60 0,0
14.08.2017 12:00:00 25,7 16,5 28,9 22,3 12 6 22 12 SSE 1018,2 37 60 0,0
14.08.2017 11:00:00 23,2 15,8 27,6 22,2 7 4 16 9 S 1018,9 48 60 0,0
14.08.2017 10:00:00 21,3 16,0 23,1 22,3 3 2 7 4 SW 1019,0 47 60 0,0
14.08.2017 09:00:00 19,0 15,5 18,0 22,4 3 2 6 4 S 1019,2 56 60 0,0
14.08.2017 08:00:00 16,6 14,8 14,2 22,6 3 2 4 2 S 1019,3 46 52 0,0
14.08.2017 07:00:00 15,7 14,1 13,3 22,8 3 1 6 3 SE 1019,3 52 0 0,0
14.08.2017 06:00:00 16,8 14,6 15,0 22,9 4 2 6 3 S 1019,1 51 0 0,0
14.08.2017 05:00:00 17,1 15,1 14,2 23,1 0 0 5 3 N 1019,1 59 0 0,0
14.08.2017 04:00:00 16,4 14,6 13,9 23,3 0 0 5 3 N 1019,2 59 0 0,0
14.08.2017 03:00:00 16,8 14,3 14,0 23,5 0 0 3 2 N 1019,3 60 0 0,0
14.08.2017 02:00:00 18,8 14,7 16,1 23,6 4 2 13 7 N 1019,1 60 0 0,0
14.08.2017 01:00:00 18,7 14,2 15,4 23,8 3 1 6 3 NNW 1019,3 60 0 0,0
14.08.2017 00:00:00 19,0 14,5 16,2 23,9 0 0 5 3 N 1019,3 52 0 0,0
13.08.2017 23:00:00 20,3 14,6 17,1 24,0 4 2 7 4 NNE 1019,2 60 0 0,0
13.08.2017 22:00:00 21,7 14,6 18,9 24,1 5 3 8 4 N 1019,1 60 0 0,0
13.08.2017 21:00:00 22,8 14,4 21,4 24,0 6 4 16 9 N 1018,7 60 34 0,0
13.08.2017 20:00:00 24,4 14,5 24,4 23,9 9 5 19 10 N 1018,6 60 36 0,0
13.08.2017 19:00:00 25,6 14,4 25,6 23,7 16 8 26 14 NNE 1018,5 60 25 0,0
13.08.2017 18:00:00 24,9 14,1 26,0 23,4 10 6 28 15 NNW 1018,8 57 5 0,0
13.08.2017 17:00:00 26,2 14,3 26,4 23,1 13 7 31 17 N 1018,9 60 26 0,0
13.08.2017 16:00:00 25,6 14,1 27,9 22,7 12 7 26 14 N 1019,0 60 45 0,0
13.08.2017 15:00:00 25,8 14,9 27,0 22,3 14 7 27 14 NNW 1019,3 60 32 0,0
13.08.2017 14:00:00 25,0 14,5 27,2 22,1 11 6 25 14 NNW 1019,7 59 51 0,0
13.08.2017 13:00:00 23,2 13,4 25,8 21,9 10 5 22 12 NNW 1020,3 59 23 0,0
13.08.2017 12:00:00 22,7 13,7 26,1 21,7 13 7 21 12 NNW 1020,7 51 49 0,0
13.08.2017 11:00:00 21,9 13,0 23,6 21,7 7 4 17 9 NNE 1021,2 53 24 0,0
13.08.2017 10:00:00 20,2 12,7 20,4 21,7 4 2 12 6 N 1021,4 57 1 0,0
13.08.2017 09:00:00 18,8 12,8 18,3 21,8 6 3 10 5 NW 1021,4 58 0 0,0
13.08.2017 08:00:00 17,4 12,5 17,1 22,0 0 0 7 4 N 1021,1 58 13 0,0
13.08.2017 07:00:00 16,7 12,2 14,0 22,2 2 1 6 3 E 1021,0 59 10 0,0
13.08.2017 06:00:00 15,7 11,9 13,7 22,3 0 0 8 4 N 1020,9 58 0 0,0
13.08.2017 05:00:00 15,2 11,6 12,8 22,5 4 2 5 3 SSW 1021,3 60 0 0,0
13.08.2017 04:00:00 16,0 11,2 13,5 22,7 4 2 6 4 E 1021,3 60 0 0,0
13.08.2017 03:00:00 16,8 10,9 14,2 22,9 5 3 16 8 NNW 1021,4 60 0 0,0
13.08.2017 02:00:00 17,8 10,9 15,4 23,1 8 4 11 6 NNW 1021,6 60 0 0,0
13.08.2017 01:00:00 17,7 10,6 14,9 23,3 6 3 10 5 NNW 1021,7 60 0 0,0
13.08.2017 00:00:00 18,3 11,6 15,9 23,4 7 4 11 6 NNW 1021,6 60 0 0,0
12.08.2017 23:00:00 19,5 11,5 17,8 23,5 9 5 11 6 NNW 1021,4 60 0 0,0
12.08.2017 22:00:00 20,1 11,0 18,2 23,5 5 3 16 9 N 1021,3 60 0 0,0
12.08.2017 21:00:00 21,4 10,8 19,9 23,5 11 6 18 10 NNE 1020,5 60 24 0,0
12.08.2017 20:00:00 23,2 10,6 22,9 23,3 10 5 21 11 NE 1020,2 60 60 0,0
12.08.2017 19:00:00 23,9 10,2 27,0 23,1 15 8 24 13 NNE 1020,2 45 60 0,0
12.08.2017 18:00:00 24,5 10,7 28,5 22,6 13 7 29 16 NE 1020,3 53 60 0,0
12.08.2017 17:00:00 24,3 10,2 27,0 22,2 14 8 28 15 N 1020,4 58 58 0,0
12.08.2017 16:00:00 24,6 10,8 26,4 21,7 11 6 23 12 NNE 1020,8 59 52 0,0
12.08.2017 15:00:00 23,8 10,8 26,9 21,2 12 6 26 14 NNE 1021,3 60 56 0,0
12.08.2017 14:00:00 23,0 11,4 27,2 20,8 9 5 21 11 N 1021,7 48 60 0,0
12.08.2017 13:00:00 21,9 11,9 24,3 20,6 7 4 16 9 NNW 1022,2 60 53 0,0
12.08.2017 12:00:00 20,6 12,0 23,5 20,4 2 1 17 9 S 1022,5 47 55 0,0
12.08.2017 11:00:00 19,7 12,7 23,6 20,3 6 4 15 8 ENE 1022,5 58 60 0,0
12.08.2017 10:00:00 18,0 12,2 21,0 20,4 6 3 12 6 ENE 1022,6 47 60 0,0
12.08.2017 09:00:00 15,7 12,3 12,5 20,5 2 1 9 5 E 1022,6 39 53 0,0
12.08.2017 08:00:00 12,4 11,5 11,4 20,6 0 0 0 0 N 1022,5 39 0 0,0
12.08.2017 07:00:00 11,9 11,1 10,3 20,8 0 0 0 0 N 1022,4 37 0 0,0
12.08.2017 06:00:00 12,2 11,4 10,0 21,0 0 0 0 0 N 1022,3 43 0 0,0
12.08.2017 05:00:00 12,0 10,9 10,3 21,2 0 0 0 0 N 1022,2 42 0 0,0
12.08.2017 04:00:00 12,6 11,3 10,5 21,4 0 0 0 0 N 1022,3 55 0 0,0
12.08.2017 03:00:00 13,1 11,3 10,8 21,5 0 0 0 0 N 1022,0 60 0 0,0
12.08.2017 02:00:00 13,9 11,8 12,4 21,7 0 0 7 4 N 1022,1 60 0 0,0
12.08.2017 01:00:00 13,3 11,4 11,0 21,9 0 0 0 0 N 1022,3 60 0 0,0
12.08.2017 00:00:00 13,5 11,0 11,5 22,0 0 0 5 3 N 1022,2 60 0 0,0
11.08.2017 23:00:00 15,0 11,0 13,3 22,1 4 2 8 5 ENE 1022,2 60 0 0,0
11.08.2017 22:00:00 16,3 11,0 14,8 22,1 5 3 9 5 E 1021,7 60 0 0,0
11.08.2017 21:00:00 16,7 10,8 15,5 22,2 4 2 13 7 ENE 1021,3 60 6 0,0
11.08.2017 20:00:00 17,5 10,8 17,7 22,1 9 5 16 9 NE 1020,6 60 2 0,0
11.08.2017 19:00:00 17,7 10,3 18,4 21,9 12 6 19 11 NE 1020,2 60 0 0,0
11.08.2017 18:00:00 18,6 11,4 18,7 21,7 16 9 30 16 NE 1020,1 31 46 0,0
11.08.2017 17:00:00 19,5 10,2 22,1 21,5 9 5 22 12 NW 1019,9 58 5 0,0
11.08.2017 16:00:00 19,3 10,6 21,6 21,4 13 7 25 13 NW 1020,1 55 29 0,0
11.08.2017 15:00:00 17,7 11,3 19,3 21,4 13 7 24 13 NW 1020,4 51 0 0,0
11.08.2017 14:00:00 16,5 11,2 17,2 21,3 13 7 18 10 NW 1020,5 60 0 0,0
11.08.2017 13:00:00 15,9 11,3 14,7 21,4 8 5 16 8 NNW 1020,6 60 0 0,2
11.08.2017 12:00:00 14,8 11,8 13,9 21,4 8 4 16 9 NW 1020,6 36 0 0,8
11.08.2017 11:00:00 14,3 11,6 13,4 21,5 9 5 28 15 N 1020,4 13 0 0,6
11.08.2017 10:00:00 14,8 9,8 14,3 21,7 13 7 24 13 NNW 1019,8 60 0 0,0
11.08.2017 09:00:00 14,1 10,1 13,5 21,8 16 8 25 13 NW 1019,6 60 0 0,0
11.08.2017 08:00:00 13,7 10,5 13,2 22,0 18 10 26 14 NW 1019,3 60 0 0,0
11.08.2017 07:00:00 13,5 10,8 12,1 22,2 14 7 22 12 NW 1018,9 60 0 0,0
11.08.2017 06:00:00 13,3 11,0 12,3 22,4 16 9 25 13 NW 1018,7 30 0 0,0
11.08.2017 05:00:00 13,5 10,7 12,2 22,6 17 9 29 16 NW 1019,0 60 0 0,2
11.08.2017 04:00:00 13,8 10,4 12,2 22,7 13 7 22 12 NW 1019,2 26 0 0,0
11.08.2017 03:00:00 14,8 10,4 13,1 22,9 15 8 21 11 NW 1019,3 60 0 0,0
11.08.2017 02:00:00 14,9 10,7 12,8 23,1 9 5 21 12 N 1019,7 40 0 0,4
11.08.2017 01:00:00 16,2 10,3 13,9 23,3 14 7 23 12 NNW 1019,6 34 0 0,0
11.08.2017 00:00:00 17,0 10,1 16,6 23,4 13 7 28 15 NNW 1019,1 60 0 0,0
10.08.2017 23:00:00 17,5 9,9 16,9 23,6 19 10 26 14 NW 1018,7 60 0 0,0
10.08.2017 22:00:00 17,8 9,9 17,2 23,7 14 8 32 18 NNW 1018,4 60 0 0,0
10.08.2017 21:00:00 19,0 9,2 18,3 23,7 25 13 35 19 NNW 1017,8 60 0 0,0
10.08.2017 20:00:00 20,8 7,8 20,8 23,6 14 7 21 11 N 1017,4 60 2 0,0
10.08.2017 19:00:00 21,2 7,1 21,8 23,5 10 5 19 10 N 1017,3 60 37 0,0
10.08.2017 18:00:00 22,6 7,2 24,2 23,3 5 3 20 11 NNW 1017,0 56 50 0,0
10.08.2017 17:00:00 22,2 7,2 25,2 23,1 7 4 16 8 W 1017,5 60 21 0,0

tt = Température de l'air
td = dewpoint
tt 5cm = Température de l'air 5cm
tt -20cm = Température de l'air -20cm
ff = Vitesse du vent
fx = gusts
dd = Direction du vent
ppp = reduced air pressure
vv = visibility
sd = Ensoleillement
rr = Quantités de précipitations

stations d'obs. à proximité